Regional Weather Roundup
Issued by NWS

Home | Current Version | Previous Version | Text Only | Print | Product List | Glossary Off
Versions: 1 2 3 4 5 6 7 8 9 10 11 12 13 14 15 16 17 18 19 20 21 22 23 24 25 26 27 28 29 30 31 32 33 34 35 36 37 38 39 40 41 42 43 44 45 46 47 48 49 50

000
ASUS43 KFSD 301402
RWRSD

WEATHER ROUNDUP FOR SOUTH DAKOTA
NATIONAL WEATHER SERVICE SIOUX FALLS SD
900 AM CDT SAT JUL 30 2016

NOTE: "FAIR" INDICATES FEW OR NO CLOUDS BELOW 12,000 FEET WITH NO
SIGNIFICANT WEATHER AND/OR OBSTRUCTIONS TO VISIBILITY.


SDZ001>005-009-010-012>017-301500-
NORTHWEST AND NORTH CENTRAL SOUTH DAKOTA

CITY           SKY/WX    TMP DP  RH WIND       PRES   REMARKS
BUFFALO          N/A     70  59  68 E5        29.87S
FAITH            N/A     68  61  78 S12       29.93R
MOBRIDGE       SUNNY     72  58  61 S16       29.92R
$$

SDZ012>016-024>037-041>051-057-063-072>074-301500-
SOUTHWEST AND SOUTH CENTRAL SOUTH DAKOTA

CITY           SKY/WX    TMP DP  RH WIND       PRES   REMARKS
RAPID CTY ARPT SUNNY     64  59  83 VRB3      29.94F
PIERRE         NOT AVBL
CUSTER         SUNNY     68  55  63 VRB3      30.07F
ELLSWORTH AFB  SUNNY     68  57  69 S2        29.94S
PHILIP         SUNNY     68  64  87 SE8       29.93S
PINE RIDGE     SUNNY     68  61  78 E5        29.97F
WINNER         FAIR      69  61  75 S13       29.98S
$$

SDZ004>011-016>023-039-040-301500-
NORTHEAST SOUTH DAKOTA

CITY           SKY/WX    TMP DP  RH WIND       PRES   REMARKS
ABERDEEN       SUNNY     68  57  68 S13       29.99R
WATERTOWN      SUNNY     68  58  70 S9        30.03F
BROOKINGS      SUNNY     66  58  75 S5        30.04S
SISSETON         N/A     70  60  70 S6        29.99S
$$

SDZ017-020-022-023-036>040-048>070-301500-
SOUTHEAST SOUTH DAKOTA

CITY           SKY/WX    TMP DP  RH WIND       PRES   REMARKS
SIOUX FALLS    SUNNY     69  61  75 SW5       30.04S
HURON          SUNNY     69  60  73 S9        29.99F
CHAMBERLAIN    MOSUNNY   72  65  78 S6        29.98S
MITCHELL       SUNNY     70  62  76 S10       30.00F
YANKTON        SUNNY     66  61  82 SE5       30.02S
$$

ABBREVIATIONS USED IN REMARKS
   TC - TEMPERATURE IN CELSIUS
  WCI - WIND CHILL INDEX
   HX - HEAT INDEX
  VSB - VISIBILITY





USA.gov is the U.S. government's official web portal to all federal, state and local government web resources and services.